KF5JED-13 Weather Reports


time (UTC)temp
C
wind
direction
speed
KPH
gust
KPH
rain 1hr
cm
rain 24hr
cm
rain mn
cm
humidity
%
barometer
mb
20260901225139 34 201 20.9 32.2 0.00 0.00 0.00 28 1016.3
20260901224636 34 183 16.1 27.4 0.00 0.00 0.00 27 1016.6
20260901224132 33 207 19.3 29.0 0.00 0.00 0.00 28 1016.7
20260901223627 33 217 24.1 33.8 0.00 0.00 0.00 28 1016.3
20260901223122 34 157 14.5 24.1 0.00 0.00 0.00 27 1016.6
20260901222618 34 203 20.9 25.7 0.00 0.00 0.00 27 1016.6
20260901222114 35 203 19.3 29.0 0.00 0.00 0.00 27 1016.6
20260901221610 35 196 20.9 25.7 0.00 0.00 0.00 27 1016.8
20260901221106 35 198 17.7 25.7 0.00 0.00 0.00 27 1016.8
20260901220605 35 159 22.5 29.0 0.00 0.00 0.00 27 1016.8
20260901220104 34 204 17.7 29.0 0.00 0.00 0.00 28 1016.5
20260901215602 34 186 12.9 27.4 0.00 0.00 0.00 28 1016.8
20260901215056 35 185 20.9 35.4 0.00 0.00 0.00 28 1016.8
20260901214555 34 167 17.7 25.7 0.00 0.00 0.00 28 1017.0
20260901214049 35 176 16.1 29.0 0.00 0.00 0.00 27 1016.9
20260901213543 35 181 20.9 32.2 0.00 0.00 0.00 28 1017.1
20260901213038 34 190 16.1 16.1 0.00 0.00 0.00 28 1017.2
20260901212537 35 187 12.9 27.4 0.00 0.00 0.00 29 1017.3
20260901212034 33 174 14.5 24.1 0.00 0.00 0.00 31 1017.5
20260901211529 33 156 20.9 29.0 0.00 0.00 0.00 31 1017.5
20260901211026 34 171 14.5 25.7 0.00 0.00 0.00 31 1017.3
20260901210521 35 162 14.5 27.4 0.00 0.00 0.00 30 1017.6
20260901210017 33 163 19.3 32.2 0.00 0.00 0.00 31 1017.6
20260901205512 33 221 17.7 32.2 0.00 0.00 0.00 29 1017.8
20260901205012 33 195 11.3 19.3 0.00 0.00 0.00 31 1017.8
20260901204508 35 187 22.5 35.4 0.00 0.00 0.00 30 1017.9
20260901204003 34 212 22.5 27.4 0.00 0.00 0.00 31 1018.0
20260901203458 33 209 14.5 20.9 0.00 0.00 0.00 32 1018.0
20260901202958 35 180 16.1 29.0 0.00 0.00 0.00 30 1018.1
20260901202453 34 207 24.1 30.6 0.00 0.00 0.00 31 1018.4
20260901201943 34 190 17.7 32.2 0.00 0.00 0.00 31 1018.4
20260901201438 33 220 14.5 19.3 0.00 0.00 0.00 32 1018.5
20260901200937 33 174 17.7 19.3 0.00 0.00 0.00 31 1018.2
20260901200427 33 171 19.3 25.7 0.00 0.00 0.00 33 1018.6
20260901195926 33 170 17.7 24.1 0.00 0.00 0.00 32 1018.6
20260901195425 34 168 20.9 29.0 0.00 0.00 0.00 31 1018.7
20260901194920 35 161 19.3 30.6 0.00 0.00 0.00 31 1018.7
20260901194415 33 213 32.2 38.6 0.00 0.00 0.00 32 1018.5
20260901193911 33 186 12.9 24.1 0.00 0.00 0.00 33 1018.7
20260901193410 33 179 11.3 25.7 0.00 0.00 0.00 32 1018.8
20260901192909 33 204 19.3 24.1 0.00 0.00 0.00 33 1018.7
20260901192405 32 185 20.9 30.6 0.00 0.00 0.00 33 1019.0
20260901191901 33 160 14.5 16.1 0.00 0.00 0.00 32 1019.0
20260901191356 33 202 20.9 32.2 0.00 0.00 0.00 32 1019.2
20260901190852 33 185 25.7 30.6 0.00 0.00 0.00 32 1019.1
20260901190347 33 213 22.5 30.6 0.00 0.00 0.00 33 1019.4
20260901185845 33 186 27.4 29.0 0.00 0.00 0.00 33 1019.2
20260901185344 32 180 22.5 27.4 0.00 0.00 0.00 33 1019.2
20260901184839 33 195 14.5 27.4 0.00 0.00 0.00 32 1019.6
20260901184335 32 164 17.7 20.9 0.00 0.00 0.00 34 1019.7
20260901183831 33 180 17.7 33.8 0.00 0.00 0.00 33 1019.6
20260901183330 32 160 11.3 25.7 0.00 0.00 0.00 34 1019.5
20260901182826 33 153 12.9 29.0 0.00 0.00 0.00 31 1019.7
20260901182326 33 187 27.4 32.2 0.00 0.00 0.00 33 1019.8
20260901181821 33 152 12.9 20.9 0.00 0.00 0.00 32 1020.0
20260901181315 33 190 17.7 27.4 0.00 0.00 0.00 33 1020.0
20260901180809 33 201 22.5 29.0 0.00 0.00 0.00 33 1020.0
20260901180308 32 151 24.1 29.0 0.00 0.00 0.00 33 1020.0
20260901175807 33 165 19.3 27.4 0.00 0.00 0.00 32 1020.1
20260901175305 32 178 11.3 19.3 0.00 0.00 0.00 37 1019.9
20260901174757 31 189 8.0 24.1 0.00 0.00 0.00 35 1020.2
20260901174253 32 202 24.1 30.6 0.00 0.00 0.00 34 1020.1
20260901173748 31 194 17.7 24.1 0.00 0.00 0.00 38 1019.9
20260901173243 31 205 19.3 25.7 0.00 0.00 0.00 38 1020.2
20260901172740 32 208 20.9 29.0 0.00 0.00 0.00 38 1020.4
20260901172238 31 224 12.9 25.7 0.00 0.00 0.00 39 1020.4
20260901171736 31 212 16.1 30.6 0.00 0.00 0.00 38 1020.2
20260901171236 32 175 14.5 22.5 0.00 0.00 0.00 38 1020.5
20260901170735 31 180 17.7 29.0 0.00 0.00 0.00 37 1020.4
20260901170230 31 234 16.1 19.3 0.00 0.00 0.00 39 1020.4
20260901165728 31 196 19.3 27.4 0.00 0.00 0.00 39 1020.1
20260901165223 31 181 17.7 30.6 0.00 0.00 0.00 40 1020.4
20260901164720 31 215 20.9 32.2 0.00 0.00 0.00 41 1020.2
20260901164215 31 185 17.7 32.2 0.00 0.00 0.00 42 1020.2
20260901163710 31 199 20.9 32.2 0.00 0.00 0.00 42 1020.2
20260901163209 30 199 17.7 25.7 0.00 0.00 0.00 44 1020.2
20260901162705 30 205 16.1 32.2 0.00 0.00 0.00 45 1020.4
20260901162204 30 221 27.4 30.6 0.00 0.00 0.00 45 1020.1
20260901161702 30 208 24.1 33.8 0.00 0.00 0.00 46 1020.2
20260901161157 30 217 17.7 35.4 0.00 0.00 0.00 46 1020.1
20260901160654 29 218 27.4 38.6 0.00 0.00 0.00 47 1020.1
20260901160149 30 212 25.7 38.6 0.00 0.00 0.00 47 1019.9
20260901155648 30 202 24.1 33.8 0.00 0.00 0.00 47 1020.0
20260901155143 29 211 30.6 38.6 0.00 0.00 0.00 48 1020.0
20260901154638 29 206 27.4 35.4 0.00 0.00 0.00 49 1020.1
20260901154132 28 207 20.9 35.4 0.00 0.00 0.00 49 1020.2
20260901153628 29 202 19.3 32.2 0.00 0.00 0.00 49 1020.1
20260901153127 28 206 24.1 32.2 0.00 0.00 0.00 50 1020.2
20260901152623 28 221 16.1 35.4 0.00 0.00 0.00 51 1020.1
20260901152121 28 211 30.6 38.6 0.00 0.00 0.00 51 1020.1
20260901151617 28 211 22.5 32.2 0.00 0.00 0.00 50 1020.1
20260901151116 27 215 33.8 37.0 0.00 0.00 0.00 52 1020.1
20260901150615 27 212 27.4 40.2 0.00 0.00 0.00 52 1020.2
20260901150113 28 213 24.1 32.2 0.00 0.00 0.00 52 1020.1
20260901145607 28 209 22.5 35.4 0.00 0.00 0.00 52 1020.2
20260901145106 27 216 32.2 40.2 0.00 0.00 0.00 53 1020.2
20260901144602 27 213 19.3 30.6 0.00 0.00 0.00 52 1020.0
20260901144056 27 214 24.1 35.4 0.00 0.00 0.00 53 1020.1
20260901143552 27 211 30.6 32.2 0.00 0.00 0.00 54 1020.1
20260901143049 27 210 25.7 29.0 0.00 0.00 0.00 54 1020.2
20260901142544 26 207 16.1 22.5 0.00 0.00 0.00 53 1020.4
20260901142043 26 210 16.1 29.0 0.00 0.00 0.00 54 1020.1
20260901141538 26 189 12.9 27.4 0.00 0.00 0.00 53 1020.2
20260901141033 26 211 17.7 27.4 0.00 0.00 0.00 55 1020.2
20260901140532 26 212 19.3 30.6 0.00 0.00 0.00 55 1020.0
20260901140027 25 213 19.3 22.5 0.00 0.00 0.00 56 1020.2
20260901135525 25 204 17.7 29.0 0.00 0.00 0.00 57 1020.5
20260901135021 25 212 22.5 25.7 0.00 0.00 0.00 56 1020.2
20260901134517 25 214 24.1 24.1 0.00 0.00 0.00 56 1020.4
20260901134012 24 218 17.7 30.6 0.00 0.00 0.00 58 1020.2
20260901133511 24 204 14.5 24.1 0.00 0.00 0.00 58 1020.2
20260901133010 24 216 20.9 25.7 0.00 0.00 0.00 58 1020.4
20260901132509 24 211 17.7 24.1 0.00 0.00 0.00 58 1020.4
20260901132009 23 201 17.7 20.9 0.00 0.00 0.00 59 1020.4
20260901131503 23 198 14.5 19.3 0.00 0.00 0.00 59 1020.2
20260901130959 23 208 14.5 17.7 0.00 0.00 0.00 60 1020.5
20260901130453 23 202 12.9 16.1 0.00 0.00 0.00 61 1020.2
20260901125950 22 194 9.7 14.5 0.00 0.00 0.00 61 1020.4
20260901125451 22 203 12.9 12.9 0.00 0.00 0.00 61 1020.2
20260901124945 22 203 12.9 17.7 0.00 0.00 0.00 62 1020.0
20260901124440 22 191 17.7 19.3 0.00 0.00 0.00 62 1019.9
20260901123935 22 192 9.7 17.7 0.00 0.00 0.00 62 1019.9
20260901123430 22 184 11.3 16.1 0.00 0.00 0.00 61 1019.9
20260901122928 22 188 8.0 17.7 0.00 0.00 0.00 61 1019.9
20260901122428 22 189 11.3 16.1 0.00 0.00 0.00 61 1019.6
20260901121927 22 194 16.1 19.3 0.00 0.00 0.00 60 1019.5
20260901121422 22 188 16.1 19.3 0.00 0.00 0.00 60 1019.7
20260901120918 22 172 12.9 20.9 0.00 0.00 0.00 59 1019.7
20260901120417 22 194 14.5 20.9 0.00 0.00 0.00 59 1019.7
20260901115913 22 191 12.9 17.7 0.00 0.00 0.00 59 1019.5
20260901115412 22 189 19.3 19.3 0.00 0.00 0.00 58 1019.5
20260901114911 22 194 12.9 17.7 0.00 0.00 0.00 58 1019.7
20260901114406 22 180 9.7 14.5 0.00 0.00 0.00 58 1019.4
20260901113904 22 191 12.9 16.1 0.00 0.00 0.00 58 1019.2
20260901113403 22 178 11.3 16.1 0.00 0.00 0.00 58 1019.1
20260901112858 22 182 12.9 17.7 0.00 0.00 0.00 58 1019.4
20260901112353 22 203 12.9 17.7 0.00 0.00 0.00 57 1019.5
20260901111848 22 205 14.5 16.1 0.00 0.00 0.00 57 1019.6
20260901111346 22 206 12.9 19.3 0.00 0.00 0.00 57 1019.4
20260901110845 22 200 12.9 17.7 0.00 0.00 0.00 57 1019.2
20260901110341 22 172 14.5 19.3 0.00 0.00 0.00 56 1019.4
20260901105837 22 178 14.5 17.7 0.00 0.00 0.00 57 1019.4
20260901105332 22 180 11.3 16.1 0.00 0.00 0.00 57 1019.0
20260901104828 22 173 11.3 17.7 0.00 0.00 0.00 57 1019.0
20260901104323 22 160 16.1 19.3 0.00 0.00 0.00 57 1019.0
20260901103819 22 175 11.3 17.7 0.00 0.00 0.00 57 1018.9
20260901103319 22 172 14.5 17.7 0.00 0.00 0.00 57 1019.0
20260901102814 22 178 9.7 20.9 0.00 0.00 0.00 57 1018.9
20260901102308 22 168 11.3 12.9 0.00 0.00 0.00 57 1018.8
20260901101803 22 166 8.0 17.7 0.00 0.00 0.00 57 1019.1
20260901101258 22 166 14.5 16.1 0.00 0.00 0.00 58 1018.9
20260901100757 22 167 9.7 16.1 0.00 0.00 0.00 57 1018.9
20260901100252 22 160 8.0 14.5 0.00 0.00 0.00 56 1018.9
20260901095750 22 164 9.7 16.1 0.00 0.00 0.00 56 1018.8
20260901095248 22 174 11.3 16.1 0.00 0.00 0.00 56 1018.9
20260901094743 22 170 11.3 16.1 0.00 0.00 0.00 55 1018.9
20260901094238 22 180 6.4 12.9 0.00 0.00 0.00 55 1019.0
20260901093733 22 186 11.3 12.9 0.00 0.00 0.00 55 1019.0
20260901093231 22 173 14.5 16.1 0.00 0.00 0.00 54 1018.9
20260901092728 23 167 14.5 17.7 0.00 0.00 0.00 54 1019.0
20260901092224 23 162 14.5 20.9 0.00 0.00 0.00 53 1019.1
20260901091719 23 171 12.9 20.9 0.00 0.00 0.00 53 1019.0
20260901091214 22 156 9.7 20.9 0.00 0.00 0.00 53 1019.1
20260901090709 23 161 17.7 24.1 0.00 0.00 0.00 52 1018.8
20260901090204 23 159 16.1 20.9 0.00 0.00 0.00 53 1018.8
20260901085700 23 158 14.5 24.1 0.00 0.00 0.00 52 1018.7
20260901085155 23 148 14.5 27.4 0.00 0.00 0.00 51 1019.0
20260901084652 23 154 17.7 25.7 0.00 0.00 0.00 51 1018.8
20260901084148 23 157 20.9 24.1 0.00 0.00 0.00 51 1018.8
20260901083647 23 156 16.1 25.7 0.00 0.00 0.00 51 1018.7
20260901083146 23 155 19.3 25.7 0.00 0.00 0.00 50 1018.7
20260901082640 23 158 17.7 20.9 0.00 0.00 0.00 50 1018.6
20260901082136 23 163 14.5 24.1 0.00 0.00 0.00 50 1018.8
20260901081631 23 153 14.5 24.1 0.00 0.00 0.00 49 1018.8
20260901081125 24 155 17.7 27.4 0.00 0.00 0.00 49 1018.7
20260901080620 24 153 17.7 24.1 0.00 0.00 0.00 49 1018.6
20260901080118 25 148 19.3 27.4 0.00 0.00 0.00 48 1018.7
20260901075614 25 147 19.3 27.4 0.00 0.00 0.00 48 1018.9
20260901075114 25 154 22.5 27.4 0.00 0.00 0.00 48 1018.9
20260901074608 25 155 24.1 25.7 0.00 0.00 0.00 48 1019.1
20260901074103 25 163 24.1 27.4 0.00 0.00 0.00 48 1018.8
20260901073600 25 147 19.3 24.1 0.00 0.00 0.00 48 1018.9
20260901073059 25 157 20.9 25.7 0.00 0.00 0.00 48 1018.8
20260901072555 25 147 19.3 24.1 0.00 0.00 0.00 48 1018.9
20260901072049 25 136 16.1 25.7 0.00 0.00 0.00 48 1018.7
20260901071544 25 146 24.1 24.1 0.00 0.00 0.00 47 1018.9
20260901071042 25 146 16.1 24.1 0.00 0.00 0.00 48 1019.0
20260901070538 25 148 14.5 27.4 0.00 0.00 0.00 48 1018.9
20260901070033 25 159 14.5 22.5 0.00 0.00 0.00 47 1019.2
20260901065527 25 148 14.5 24.1 0.00 0.00 0.00 47 1019.0
20260901065021 25 149 17.7 22.5 0.00 0.00 0.00 47 1018.9
20260901064518 25 144 14.5 22.5 0.00 0.00 0.00 47 1019.4
20260901064015 25 152 14.5 22.5 0.00 0.00 0.00 47 1019.2
20260901063512 25 158 14.5 19.3 0.00 0.00 0.00 47 1019.1
20260901063008 25 144 14.5 22.5 0.00 0.00 0.00 47 1019.2
20260901062503 25 153 11.3 17.7 0.00 0.00 0.00 48 1019.0
20260901061959 24 145 9.7 20.9 0.00 0.00 0.00 48 1019.1
20260901061454 25 159 14.5 19.3 0.00 0.00 0.00 48 1019.2
20260901060949 25 154 12.9 20.9 0.00 0.00 0.00 47 1018.9
20260901060444 25 153 17.7 19.3 0.00 0.00 0.00 48 1018.9
20260901055944 25 143 12.9 17.7 0.00 0.00 0.00 48 1019.0
20260901055440 25 156 11.3 17.7 0.00 0.00 0.00 48 1019.1
20260901054937 25 147 14.5 17.7 0.00 0.00 0.00 48 1018.9
20260901054434 24 148 12.9 16.1 0.00 0.00 0.00 49 1019.1
20260901053929 25 150 16.1 17.7 0.00 0.00 0.00 48 1019.0
20260901053425 25 145 12.9 20.9 0.00 0.00 0.00 48 1019.1
20260901052920 25 148 11.3 17.7 0.00 0.00 0.00 48 1019.0
20260901052415 25 155 14.5 17.7 0.00 0.00 0.00 47 1019.1
20260901051914 25 147 14.5 17.7 0.00 0.00 0.00 48 1019.2
20260901051410 25 136 12.9 17.7 0.00 0.00 0.00 48 1019.0
20260901050904 25 151 12.9 16.1 0.00 0.00 0.00 48 1019.1
20260901050400 25 154 12.9 19.3 0.00 0.00 0.00 47 1019.0
20260901045900 25 152 11.3 17.7 0.00 0.00 0.00 47 1018.8
20260901045354 25 157 12.9 20.9 0.00 0.00 0.00 47 1019.0
20260901044850 25 157 12.9 19.3 0.00 0.00 0.00 47 1018.9
20260901044346 25 158 11.3 22.5 0.00 0.00 0.00 47 1019.1
20260901043841 25 144 17.7 20.9 0.00 0.00 0.00 47 1019.0
20260901043337 25 148 14.5 20.9 0.00 0.00 0.00 47 1018.6
20260901042837 25 149 14.5 20.9 0.00 0.00 0.00 47 1018.8
20260901042331 25 153 8.0 17.7 0.00 0.00 0.00 47 1018.8
20260901041827 25 138 12.9 19.3 0.00 0.00 0.00 47 1018.9
20260901041322 26 155 14.5 16.1 0.00 0.00 0.00 47 1018.9
20260901040821 26 146 12.9 20.9 0.00 0.00 0.00 46 1018.8
20260901040320 26 150 9.7 17.7 0.00 0.00 0.00 46 1018.7
20260901035815 26 157 12.9 19.3 0.00 0.00 0.00 45 1018.8
20260901035314 26 144 11.3 17.7 0.00 0.00 0.00 45 1018.5
20260901034812 26 155 9.7 19.3 0.00 0.00 0.00 44 1018.7
20260901034308 26 157 9.7 17.7 0.00 0.00 0.00 44 1018.6
20260901033802 26 147 14.5 14.5 0.00 0.00 0.00 44 1018.6
20260901033301 26 136 9.7 14.5 0.00 0.00 0.00 44 1018.7
20260901032759 26 151 9.7 17.7 0.00 0.00 0.00 44 1018.2
20260901032254 27 141 8.0 16.1 0.00 0.00 0.00 43 1018.2
20260901031749 26 142 8.0 16.1 0.00 0.00 0.00 43 1018.4
20260901031244 26 142 11.3 16.1 0.00 0.00 0.00 43 1018.1
20260901030739 26 144 6.4 14.5 0.00 0.00 0.00 43 1018.2
20260901030234 27 142 9.7 16.1 0.00 0.00 0.00 42 1018.0
20260901025728 27 139 11.3 16.1 0.00 0.00 0.00 42 1017.9
20260901025223 26 143 8.0 14.5 0.00 0.00 0.00 43 1017.7
20260901024717 26 132 14.5 17.7 0.00 0.00 0.00 43 1017.7
20260901024217 27 146 9.7 11.3 0.00 0.00 0.00 42 1017.6
20260901023715 27 133 6.4 14.5 0.00 0.00 0.00 42 1017.7
20260901023210 27 139 9.7 12.9 0.00 0.00 0.00 41 1017.5
20260901022706 27 150 9.7 14.5 0.00 0.00 0.00 41 1017.3
20260901022201 28 159 9.7 17.7 0.00 0.00 0.00 40 1017.3
20260901021656 28 150 12.9 14.5 0.00 0.00 0.00 40 1017.1
20260901021151 28 161 9.7 14.5 0.00 0.00 0.00 40 1017.1
20260901020647 28 151 9.7 11.3 0.00 0.00 0.00 40 1017.1
20260901020142 28 148 12.9 16.1 0.00 0.00 0.00 39 1017.0
20260901015637 28 160 11.3 17.7 0.00 0.00 0.00 39 1016.9
20260901015137 28 158 9.7 12.9 0.00 0.00 0.00 38 1016.8
20260901014632 28 161 11.3 12.9 0.00 0.00 0.00 39 1016.8
20260901014128 28 167 6.4 11.3 0.00 0.00 0.00 39 1016.9
20260901013624 28 161 11.3 12.9 0.00 0.00 0.00 38 1016.6
20260901013120 29 160 8.0 11.3 0.00 0.00 0.00 38 1016.9
20260901012619 29 156 9.7 12.9 0.00 0.00 0.00 37 1016.8
20260901012114 29 166 9.7 11.3 0.00 0.00 0.00 37 1016.6
20260901011610 30 164 11.3 14.5 0.00 0.00 0.00 37 1016.6
20260901011108 30 168 14.5 16.1 0.00 0.00 0.00 36 1016.9
20260901010603 30 158 9.7 11.3 0.00 0.00 0.00 34 1016.7
20260901005557 31 147 16.1 17.7 0.00 0.00 0.00 33 1016.3
20260901005052 31 157 17.7 25.7 0.00 0.00 0.00 33 1016.3
20260901004552 31 161 14.5 25.7 0.00 0.00 0.00 33 1016.5
20260901004047 32 157 14.5 19.3 0.00 0.00 0.00 33 1016.6
20260901003542 32 171 12.9 20.9 0.00 0.00 0.00 32 1016.3
20260901003040 32 161 14.5 22.5 0.00 0.00 0.00 31 1016.5
20260901002540 32 159 14.5 19.3 0.00 0.00 0.00 31 1016.5
20260901002035 32 158 20.9 25.7 0.00 0.00 0.00 30 1016.2
20260901001531 32 148 17.7 24.1 0.00 0.00 0.00 31 1016.6
20260901001026 32 159 14.5 25.7 0.00 0.00 0.00 30 1016.5
20260901000526 33 153 24.1 27.4 0.00 0.00 0.00 30 1016.5
20260901000022 33 150 17.7 32.2 0.00 0.00 0.00 31 1016.6
20260831235515 33 157 22.5 24.1 0.00 0.00 0.00 31 1016.5
20260831235011 33 160 17.7 22.5 0.00 0.00 0.00 30 1016.5
20260831234505 33 171 17.7 29.0 0.00 0.00 0.00 31 1016.6
20260831234001 33 158 20.9 25.7 0.00 0.00 0.00 31 1016.5
20260831233456 33 170 17.7 27.4 0.00 0.00 0.00 31 1016.5
20260831232951 33 169 17.7 27.4 0.00 0.00 0.00 31 1016.3
20260831232447 33 150 17.7 25.7 0.00 0.00 0.00 30 1016.6
20260831231943 33 163 24.1 29.0 0.00 0.00 0.00 30 1016.5
20260831231439 34 164 16.1 27.4 0.00 0.00 0.00 30 1016.5
20260831230934 33 168 9.7 20.9 0.00 0.00 0.00 30 1016.5
20260831230434 33 159 14.5 20.9 0.00 0.00 0.00 30 1016.9
20260831225929 34 162 17.7 25.7 0.00 0.00 0.00 29 1016.7
20260831225425 33 156 17.7 30.6 0.00 0.00 0.00 29 1016.8